Location: Alvediston
(51.0078°N, 2.0364°W)
Time: 05:34:10
(UTC+00:00)

STARLINK-1056 - Pass Details

Date: 27 February 2020
Orbit: 549 x 551 km, 53.0° (Epoch: 31 March)

Event Time Altitude Azimuth Distance (km) Brightness Sun altitude
Rises 18:50:13 0° 223° (SW) 2,708 7.8 -11.1°
Reaches altitude 10° 18:52:32 10° 215° (SW) 1,819 6.8 -11.4°
Maximum altitude 18:56:24 40° 146° (SE) 824 4.2 -12.0°
Enters shadow 18:58:53 19° 87° (E) 1,334 4.9 -12.4°
